[[{"header":{"parameterUnit":"m.s-1","parameterCategory":1,"la1":30.2991,"la2":30.254,"lo1":-89.0895,"lo2":-89.0444,"dy":0.0017,"dx":0.0017,"nx":28,"ny":28,"refTime":"2024-03-03T09:00:00:Z","depth":0,"parameterNumber":2,"parameterNumberName":"U-component_of_WINDS"},"data":[0,0,0,0,0,0,0,0,0,0,0,0,0,0,0,0,0,0,0,0,0,0,0,0,0,0,0,0,0,0,0,0,0,0,0,0,0,0,0,0,0,0,0,0,0,0,0,0,0,0,0,0,0,0,0,0,0,0,-1.5314,-1.5314,0,-1.5312,-1.5312,-1.5312,-1.5267,-1.5266,-1.5265,-1.5264,-1.5261,-1.5262,-1.5263,0,0,0,0,0,0,0,0,0,0,0,0,0,-1.528,-1.5281,-1.5314,-1.5314,-1.5314,-1.5312,-1.5312,-1.5312,-1.5268,-1.5266,-1.5265,-1.5263,-1.5261,-1.5262,-1.5263,0,0,0,0,0,0,0,0,0,0,0,0,0,-1.5288,-1.5281,-1.5314,-1.5292,-1.529,-1.5312,-1.5312,-1.5312,-1.5268,-1.5266,-1.5264,-1.5263,-1.5261,-1.5262,-1.5264,-1.5307,0,0,-1.5268,-1.5269,0,0,0,0,0,0,0,0,-1.5287,-1.5289,-1.5295,-1.5293,-1.5291,-1.5288,-1.5299,-1.531,-1.5268,-1.5276,-1.5264,-1.5262,-1.5272,-1.5272,-1.5275,-1.5307,-1.5307,-1.5268,-1.5269,-1.527,-1.527,0,0,0,0,0,0,0,-1.5287,-1.5289,-1.5314,-1.5295,-1.5293,-1.5282,-1.5281,-1.5301,-1.5284,-1.5275,-1.5272,-1.5272,-1.527,-1.5274,-1.5275,-1.5307,-1.5268,-1.527,-1.527,-1.5271,-1.5375,-1.5376,0,0,0,0,0,0,-1.529,-1.5289,-1.5314,-1.5313,-1.5285,-1.5284,-1.5283,-1.5291,-1.5283,-1.528,-1.5274,-1.527,-1.5272,-1.5273,-1.5275,-1.5326,-1.527,-1.5271,-1.5272,-1.5373,-1.5375,-1.5377,0,0,0,0,0,0,-1.5289,-1.5292,-1.5314,-1.53,-1.5302,-1.5286,-1.5296,-1.5292,-1.5296,-1.5282,-1.5279,-1.5281,-1.5271,-1.5273,-1.53,-1.5325,-1.5272,-1.5273,-1.5371,-1.5373,-1.5376,-1.5428,0,0,0,0,0,0,-1.5288,-1.5292,-1.5309,-1.5301,-1.5303,-1.5339,-1.5297,-1.5293,-1.5298,-1.5294,-1.5288,-1.5285,-1.527,-1.5298,-1.5301,-1.5326,-1.5274,-1.5368,-1.5372,-1.5375,-1.5424,-1.5432,-1.5439,0,0,0,0,0,-1.5287,-1.5323,-1.531,-1.5313,-1.5323,-1.534,-1.5341,-1.5323,-1.5301,-1.5317,-1.5309,-1.5286,-1.5322,-1.5301,-1.5304,-1.533,-1.5367,-1.5371,-1.5375,-1.542,-1.543,-1.5439,0,0,0,0,0,0,-1.5334,-1.5322,-1.5307,-1.5342,-1.5342,-1.5333,-1.5353,-1.5334,-1.5341,-1.5336,-1.5313,-1.5312,-1.5343,-1.5339,-1.5316,-1.5372,-1.534,-1.5345,-1.5374,-1.5383,-1.539,-1.5391,-1.5276,0,0,0,0,0,-1.5349,-1.5363,-1.5352,-1.5384,-1.5385,-1.5369,-1.5376,-1.5361,-1.5361,-1.5361,-1.5354,-1.5355,-1.5366,-1.5374,-1.5384,-1.5423,-1.5421,-1.5443,-1.545,-1.5457,-1.5461,-1.5482,-1.5491,-1.5391,-1.5391,-1.5391,0,0,-1.5378,-1.5374,-1.5384,-1.5393,-1.5392,-1.5408,-1.5369,-1.5388,-1.5399,-1.5364,-1.5389,-1.5384,-1.5383,-1.5417,-1.5431,-1.5414,-1.5489,-1.5462,-1.5467,-1.5468,-1.5487,-1.5497,-1.5505,-1.5394,-1.5393,-1.5393,0,0,-1.5441,-1.5439,-1.5465,-1.5465,-1.5464,-1.5453,-1.546,-1.5453,-1.5449,-1.5474,-1.5447,-1.5461,-1.5481,-1.5481,-1.5484,-1.5548,-1.5527,-1.5552,-1.5592,-1.5612,-1.562,-1.5627,-1.565,-1.5659,-1.5556,-1.5557,-1.5557,0,-1.5478,-1.5501,-1.5481,-1.5502,-1.5506,-1.5475,-1.5502,-1.5502,-1.5505,-1.5509,-1.549,-1.5515,-1.5512,-1.5545,-1.5561,-1.5564,-1.5571,-1.5552,-1.5621,-1.5627,-1.5634,-1.5655,-1.5664,-1.556,-1.5559,-1.5559,-1.5559,0,-1.5547,-1.5564,-1.5585,-1.5589,-1.5596,-1.5619,-1.5602,-1.5612,-1.5597,-1.5588,-1.5614,-1.561,-1.5618,-1.5625,-1.5611,-1.5656,-1.5646,-1.5625,-1.5592,-1.5647,-1.5666,-1.5675,-1.5564,-1.5563,-1.5562,-1.5561,0,0,-1.5639,-1.5632,-1.564,-1.5641,-1.5638,-1.565,-1.5672,-1.5681,-1.569,-1.5692,-1.571,-1.5728,-1.5709,-1.5712,-1.5697,-1.5715,-1.5766,-1.5691,-1.5691,-1.5706,-1.5817,-1.5833,-1.5843,-1.5753,-1.5754,-1.5755,-1.5817,0,-1.57,-1.5738,-1.572,-1.576,-1.5775,-1.5746,-1.5765,-1.5765,-1.5758,-1.5769,-1.5761,-1.5774,-1.5747,-1.5748,-1.5765,-1.5757,-1.5788,-1.5752,-1.5769,-1.577,-1.5771,-1.5853,-1.5871,-1.5929,-1.5825,-1.5826,-1.5827,0,-1.5776,-1.5782,-1.5823,-1.5818,-1.5824,-1.5841,-1.5848,-1.5859,-1.5859,-1.5852,-1.5857,-1.5838,-1.5859,-1.5827,-1.5856,-1.5832,-1.5838,-1.5835,-1.5837,-1.5838,-1.5802,-1.5857,-1.5947,-1.5956,-1.5839,-1.5838,-1.5837,0,-1.5839,-1.5858,-1.5885,-1.5887,-1.5881,-1.5895,-1.5893,-1.5891,-1.5897,-1.5903,-1.5907,-1.5915,-1.592,-1.5926,-1.5911,-1.5888,-1.5942,-1.5908,-1.5937,-1.5938,-1.595,-1.5949,-1.6043,-1.5954,-1.5953,-1.5953,-1.5953,0,-1.5909,-1.5935,-1.5914,-1.593,-1.5959,-1.5939,-1.5968,-1.5963,-1.5961,-1.5976,-1.5952,-1.5966,-1.5944,-1.5957,-1.5945,-1.5971,-1.5973,-1.5968,-1.5965,-1.5971,-1.5971,-1.5974,-1.597,-1.5955,-1.5955,-1.5955,-1.5954,0,-1.5985,-1.5971,-1.5999,-1.5991,-1.599,-1.6011,-1.6005,-1.602,-1.6011,-1.6031,-1.6034,-1.602,-1.6034,-1.6018,-1.6031,-1.6022,-1.6058,-1.6048,-1.6058,-1.6056,-1.6086,-1.6083,-1.6184,-1.6197,-1.61,-1.61,-1.6101,0,-1.603,-1.605,-1.6044,-1.6053,-1.6053,-1.6067,-1.6073,-1.6054,-1.6062,-1.6064,-1.6079,-1.609,-1.6099,-1.6122,-1.6113,-1.6122,-1.6113,-1.6147,-1.6114,-1.6119,-1.6114,-1.6113,-1.6115,-1.6154,-1.6156,-1.6156,-1.6157,0,-1.6112,-1.6105,-1.6115,-1.6124,-1.6132,-1.6138,-1.6142,-1.615,-1.613,-1.6141,-1.6154,-1.6161,-1.6174,-1.6186,-1.6193,-1.6191,-1.6171,-1.6168,-1.6175,-1.6182,-1.6187,-1.6185,-1.6077,-1.6166,-1.6165,-1.6164,-1.6164,-1.6163,-1.6174,-1.619,-1.619,-1.6202,-1.6203,-1.6207,-1.6221,-1.6214,-1.6226,-1.6235,-1.6223,-1.624,-1.624,-1.6247,-1.6247,-1.6261,-1.6246,-1.6256,-1.6259,-1.6262,-1.6266,-1.6185,-1.6262,-1.6261,-1.6261,-1.6261,-1.6261,0,-1.6255,-1.6253,-1.6265,-1.6272,-1.6282,-1.6263,-1.6266,-1.6276,-1.6291,-1.6292,-1.6301,-1.6317,-1.6329,-1.6321,-1.6331,-1.6343,-1.6334,-1.6346,-1.6345,-1.6345,-1.6279,-1.6272,-1.6353,-1.6353,-1.6353,-1.6353,-1.6353,-1.6353,-1.6299,-1.6325,-1.6318,-1.6345,-1.6343,-1.636,-1.6363,-1.6367,-1.6368,-1.6387,-1.6397,-1.6392,-1.6389,-1.6399,-1.6409,-1.6406,-1.6411,-1.6426,-1.6421,-1.6359,-1.635,-1.6341,-1.6334,-1.6428,-1.6428,-1.6486,-1.6486,-1.6487]},{"header":{"parameterUnit":"m.s-1","parameterCategory":1,"la1":30.2991,"la2":30.254,"lo1":-89.0895,"lo2":-89.0444,"dy":0.0017,"dx":0.0017,"nx":28,"ny":28,"refTime":"2024-03-03T09:00:00:Z","depth":0,"parameterNumber":3,"parameterNumberName":"V-component_of_WINDS"},"data":[0,0,0,0,0,0,0,0,0,0,0,0,0,0,0,0,0,0,0,0,0,0,0,0,0,0,0,0,0,0,0,0,0,0,0,0,0,0,0,0,0,0,0,0,0,0,0,0,0,0,0,0,0,0,0,0,0,0,-0.4766,-0.4766,0,-0.4799,-0.4799,-0.48,-0.4798,-0.4798,-0.4797,-0.4797,-0.4831,-0.4833,-0.4834,0,0,0,0,0,0,0,0,0,0,0,0,0,-0.4701,-0.4702,-0.4766,-0.4766,-0.4766,-0.4799,-0.4799,-0.48,-0.4798,-0.4798,-0.4797,-0.4797,-0.4831,-0.4832,-0.4834,0,0,0,0,0,0,0,0,0,0,0,0,0,-0.4731,-0.4702,-0.4766,-0.477,-0.477,-0.4799,-0.4799,-0.48,-0.4799,-0.4798,-0.4797,-0.4796,-0.483,-0.4832,-0.4834,-0.4861,0,0,-0.484,-0.4841,0,0,0,0,0,0,0,0,-0.4729,-0.4733,-0.4769,-0.4769,-0.477,-0.4794,-0.4789,-0.482,-0.4799,-0.4788,-0.4797,-0.4796,-0.4819,-0.4822,-0.483,-0.4862,-0.4864,-0.4841,-0.4842,-0.4843,-0.4843,0,0,0,0,0,0,0,-0.4727,-0.4732,-0.4779,-0.4769,-0.477,-0.477,-0.4773,-0.4795,-0.4807,-0.4789,-0.4789,-0.4793,-0.482,-0.4828,-0.4831,-0.4864,-0.484,-0.4842,-0.4844,-0.4844,-0.4919,-0.492,0,0,0,0,0,0,-0.4724,-0.473,-0.4778,-0.478,-0.4748,-0.4772,-0.4775,-0.4787,-0.4807,-0.4809,-0.4793,-0.4792,-0.4825,-0.4828,-0.4832,-0.4864,-0.4843,-0.4845,-0.4846,-0.4919,-0.492,-0.492,0,0,0,0,0,0,-0.4723,-0.4728,-0.4776,-0.4755,-0.4761,-0.4773,-0.4786,-0.4788,-0.4796,-0.481,-0.4812,-0.48,-0.4824,-0.4829,-0.4853,-0.4865,-0.4845,-0.4847,-0.4918,-0.4919,-0.492,-0.4929,0,0,0,0,0,0,-0.4721,-0.4728,-0.4738,-0.4755,-0.4762,-0.4797,-0.4787,-0.4789,-0.48,-0.4799,-0.4817,-0.4819,-0.4824,-0.485,-0.4855,-0.4868,-0.4849,-0.4917,-0.4918,-0.492,-0.4928,-0.493,-0.4933,0,0,0,0,0,-0.4719,-0.474,-0.4739,-0.4745,-0.4775,-0.4798,-0.4802,-0.4808,-0.4801,-0.4811,-0.482,-0.4818,-0.4863,-0.4853,-0.4859,-0.4872,-0.4916,-0.4918,-0.4919,-0.4927,-0.493,-0.4933,0,0,0,0,0,0,-0.4724,-0.4742,-0.4741,-0.4768,-0.4782,-0.4798,-0.4811,-0.4811,-0.4827,-0.4825,-0.4832,-0.4836,-0.486,-0.4868,-0.4856,-0.4898,-0.4889,-0.4892,-0.4892,-0.4895,-0.4898,-0.4896,-0.4851,0,0,0,0,0,-0.4728,-0.4746,-0.476,-0.4783,-0.4789,-0.4799,-0.4809,-0.4812,-0.4826,-0.4832,-0.4843,-0.4856,-0.4873,-0.4885,-0.4901,-0.4928,-0.4932,-0.494,-0.4943,-0.4945,-0.4947,-0.4962,-0.4966,-0.4926,-0.4926,-0.4926,0,0,-0.4738,-0.475,-0.476,-0.4784,-0.4795,-0.4812,-0.4804,-0.4823,-0.4836,-0.4835,-0.4859,-0.4867,-0.4882,-0.4908,-0.492,-0.4916,-0.4959,-0.4947,-0.4948,-0.495,-0.4965,-0.4968,-0.4972,-0.4927,-0.4927,-0.4927,0,0,-0.4764,-0.4774,-0.4794,-0.4805,-0.4821,-0.4827,-0.4832,-0.4848,-0.4853,-0.4877,-0.4877,-0.4892,-0.4921,-0.4932,-0.4942,-0.4971,-0.497,-0.4976,-0.4989,-0.5004,-0.5007,-0.501,-0.502,-0.5024,-0.4978,-0.4978,-0.4978,0,-0.4773,-0.48,-0.4804,-0.4823,-0.4834,-0.4833,-0.4853,-0.4864,-0.4884,-0.4892,-0.4886,-0.4923,-0.4933,-0.4962,-0.4969,-0.4976,-0.4982,-0.4975,-0.5006,-0.5009,-0.5012,-0.5022,-0.5026,-0.4979,-0.4979,-0.4979,-0.4979,0,-0.4811,-0.4829,-0.4843,-0.4863,-0.4875,-0.4894,-0.4902,-0.4913,-0.4915,-0.4921,-0.4945,-0.4958,-0.4977,-0.4983,-0.4985,-0.5012,-0.5009,-0.5005,-0.4995,-0.5016,-0.5026,-0.503,-0.498,-0.498,-0.498,-0.4979,0,0,-0.4843,-0.4864,-0.4869,-0.4878,-0.4895,-0.4909,-0.4928,-0.4947,-0.4956,-0.497,-0.4987,-0.5011,-0.5007,-0.5018,-0.502,-0.5033,-0.5055,-0.5027,-0.5028,-0.5033,-0.5086,-0.509,-0.5094,-0.5055,-0.5055,-0.5056,-0.5085,0,-0.4871,-0.4905,-0.4909,-0.494,-0.4956,-0.4955,-0.4972,-0.4984,-0.4991,-0.5006,-0.5013,-0.503,-0.5023,-0.503,-0.5042,-0.505,-0.5066,-0.5048,-0.507,-0.5071,-0.5067,-0.5099,-0.5103,-0.513,-0.5089,-0.5089,-0.509,0,-0.4909,-0.4923,-0.4955,-0.497,-0.4977,-0.4992,-0.5009,-0.5023,-0.5037,-0.504,-0.5052,-0.5053,-0.5072,-0.5061,-0.5089,-0.5076,-0.5085,-0.509,-0.5091,-0.5094,-0.5082,-0.5104,-0.5139,-0.5143,-0.5096,-0.5095,-0.5095,0,-0.4929,-0.4957,-0.498,-0.4987,-0.5004,-0.5015,-0.5022,-0.5035,-0.5046,-0.506,-0.5067,-0.5084,-0.5093,-0.5106,-0.5111,-0.5103,-0.5138,-0.5127,-0.5142,-0.5142,-0.515,-0.515,-0.5188,-0.5155,-0.5155,-0.5155,-0.5154,0,-0.4961,-0.4981,-0.4989,-0.5003,-0.5025,-0.5029,-0.5051,-0.5058,-0.5069,-0.5084,-0.5084,-0.5099,-0.5104,-0.512,-0.5124,-0.5146,-0.515,-0.5153,-0.5155,-0.5154,-0.5154,-0.5161,-0.5159,-0.5156,-0.5155,-0.5155,-0.5155,0,-0.4988,-0.4994,-0.5019,-0.5033,-0.5037,-0.5053,-0.5065,-0.5078,-0.5084,-0.5103,-0.5108,-0.5117,-0.5135,-0.5141,-0.5163,-0.5165,-0.5191,-0.519,-0.5187,-0.5187,-0.5201,-0.52,-0.5246,-0.5253,-0.5214,-0.5215,-0.5215,0,-0.5008,-0.5023,-0.5039,-0.5049,-0.5057,-0.5073,-0.5084,-0.5088,-0.5099,-0.5115,-0.5127,-0.5144,-0.5159,-0.5187,-0.5196,-0.5212,-0.5212,-0.5227,-0.5215,-0.5214,-0.5213,-0.5213,-0.5214,-0.523,-0.523,-0.5231,-0.5231,0,-0.5044,-0.5046,-0.5061,-0.5077,-0.509,-0.5103,-0.5116,-0.5124,-0.513,-0.5142,-0.516,-0.5171,-0.5193,-0.5211,-0.5227,-0.5235,-0.5234,-0.5234,-0.5239,-0.5239,-0.5237,-0.5239,-0.5194,-0.5234,-0.5233,-0.5233,-0.5233,-0.5233,-0.5069,-0.5082,-0.5095,-0.5112,-0.5121,-0.5133,-0.5146,-0.5153,-0.5168,-0.5187,-0.5188,-0.5207,-0.522,-0.5242,-0.5251,-0.5266,-0.5262,-0.5268,-0.527,-0.5271,-0.5273,-0.5233,-0.5269,-0.5269,-0.5269,-0.5269,-0.5269,0,-0.5105,-0.5113,-0.5128,-0.5145,-0.5158,-0.5156,-0.5169,-0.518,-0.5198,-0.5209,-0.5223,-0.5244,-0.526,-0.527,-0.5287,-0.5297,-0.5297,-0.5301,-0.5301,-0.5303,-0.5275,-0.527,-0.5301,-0.5301,-0.5301,-0.5301,-0.5301,-0.5301,-0.5125,-0.5147,-0.5151,-0.5178,-0.5186,-0.5205,-0.5213,-0.5223,-0.5233,-0.5256,-0.5269,-0.5275,-0.5286,-0.5303,-0.5318,-0.5321,-0.5327,-0.5332,-0.5334,-0.5308,-0.5305,-0.5302,-0.5297,-0.5333,-0.5333,-0.5361,-0.5361,-0.5361]}]]